TimeEST,TemperatureF,Dew PointF,Humidity,Sea Level PressureIn,VisibilityMPH,Wind Direction,Wind SpeedMPH,Gust SpeedMPH,PrecipitationIn,Events,Conditions,WindDirDegrees,DateUTC
12:15 AM,30.2,24.8,80,30.20,7.0,SE,3.5,-,N/A,,Overcast,140,2013-02-07 05:15:00
12:35 AM,30.2,24.8,80,30.20,7.0,Calm,Calm,-,N/A,,Overcast,0,2013-02-07 05:35:00
12:55 AM,30.2,24.8,80,30.20,7.0,SE,3.5,-,N/A,,Overcast,140,2013-02-07 05:55:00
1:15 AM,30.2,24.8,80,30.20,7.0,SE,5.8,-,N/A,,Mostly Cloudy,140,2013-02-07 06:15:00
1:35 AM,30.2,24.8,80,30.17,7.0,SE,5.8,-,N/A,,Mostly Cloudy,130,2013-02-07 06:35:00
1:55 AM,30.2,24.8,80,30.16,7.0,SE,6.9,-,N/A,,Mostly Cloudy,130,2013-02-07 06:55:00
2:15 AM,30.2,24.8,80,30.14,7.0,SE,9.2,-,N/A,,Scattered Clouds,140,2013-02-07 07:15:00
2:35 AM,30.2,24.8,80,30.15,7.0,SE,6.9,-,N/A,,Clear,140,2013-02-07 07:35:00
2:55 AM,30.2,24.8,80,30.15,7.0,SE,4.6,-,N/A,,Clear,130,2013-02-07 07:55:00
3:15 AM,30.2,24.8,80,30.15,7.0,SE,6.9,-,N/A,,Scattered Clouds,130,2013-02-07 08:15:00
3:35 AM,30.2,24.8,80,30.16,7.0,ESE,4.6,-,N/A,,Scattered Clouds,110,2013-02-07 08:35:00
3:55 AM,30.2,24.8,80,30.15,7.0,ESE,6.9,-,N/A,,Clear,110,2013-02-07 08:55:00
4:15 AM,30.2,24.8,80,30.15,5.0,ESE,6.9,-,N/A,,Haze,110,2013-02-07 09:15:00
4:35 AM,28.4,24.8,86,30.14,5.0,ESE,5.8,-,N/A,,Scattered Clouds,120,2013-02-07 09:35:00
4:55 AM,28.4,24.8,86,30.15,5.0,ESE,4.6,-,N/A,,Scattered Clouds,120,2013-02-07 09:55:00
5:15 AM,28.4,24.8,86,30.15,5.0,ESE,5.8,-,N/A,,Clear,120,2013-02-07 10:15:00
5:35 AM,28.4,24.8,86,30.14,5.0,ESE,5.8,-,N/A,,Clear,120,2013-02-07 10:35:00
5:55 AM,28.4,24.8,86,30.15,5.0,ESE,4.6,-,N/A,,Clear,120,2013-02-07 10:55:00
6:15 AM,28.4,24.8,86,30.14,5.0,ESE,5.8,-,N/A,,Clear,120,2013-02-07 11:15:00
6:35 AM,28.4,24.8,86,30.14,5.0,SE,5.8,-,N/A,,Clear,130,2013-02-07 11:35:00
6:55 AM,28.4,24.8,86,30.14,5.0,SE,5.8,-,N/A,,Scattered Clouds,130,2013-02-07 11:55:00
7:15 AM,28.4,24.8,86,30.13,5.0,ESE,9.2,-,N/A,,Scattered Clouds,120,2013-02-07 12:15:00
7:35 AM,28.4,24.8,86,30.13,5.0,ESE,4.6,-,N/A,,Mostly Cloudy,120,2013-02-07 12:35:00
7:55 AM,28.4,24.8,86,30.13,4.0,ESE,6.9,-,N/A,,Mostly Cloudy,120,2013-02-07 12:55:00
8:15 AM,28.4,24.8,86,30.13,4.0,ESE,5.8,-,N/A,,Scattered Clouds,110,2013-02-07 13:15:00
8:35 AM,28.4,24.8,86,30.13,4.0,East,5.8,-,N/A,,Clear,100,2013-02-07 13:35:00
8:55 AM,28.4,24.8,86,30.13,4.0,ESE,6.9,-,N/A,,Clear,110,2013-02-07 13:55:00
9:15 AM,30.2,24.8,80,30.13,4.0,ESE,5.8,-,N/A,,Haze,110,2013-02-07 14:15:00
9:35 AM,30.2,24.8,80,30.12,4.0,ESE,6.9,-,N/A,,Haze,120,2013-02-07 14:35:00
9:55 AM,30.2,24.8,80,30.11,5.0,ESE,8.1,-,N/A,,Haze,120,2013-02-07 14:55:00
10:15 AM,32.0,26.6,80,30.11,5.0,ESE,8.1,-,N/A,,Haze,120,2013-02-07 15:15:00
10:35 AM,32.0,26.6,80,30.09,5.0,ESE,10.4,-,N/A,,Haze,120,2013-02-07 15:35:00
10:55 AM,32.0,26.6,80,30.08,5.0,SE,9.2,-,N/A,,Haze,130,2013-02-07 15:55:00
11:15 AM,33.8,26.6,75,30.08,7.0,ESE,10.4,-,N/A,,Clear,120,2013-02-07 16:15:00
11:35 AM,35.6,28.4,75,30.07,7.0,ESE,9.2,-,N/A,,Clear,120,2013-02-07 16:35:00
11:55 AM,35.6,28.4,75,30.05,5.0,ESE,8.1,-,N/A,,Haze,120,2013-02-07 16:55:00
12:35 PM,37.4,28.4,70,30.04,7.0,SE,8.1,-,N/A,,Clear,130,2013-02-07 17:35:00
12:55 PM,37.4,28.4,70,30.03,7.0,ESE,8.1,-,N/A,,Clear,110,2013-02-07 17:55:00
1:15 PM,37.4,30.2,75,30.01,7.0,ESE,8.1,-,N/A,,Clear,110,2013-02-07 18:15:00
1:35 PM,37.4,30.2,75,29.99,7.0,ESE,11.5,-,N/A,,Clear,120,2013-02-07 18:35:00
1:55 PM,39.2,30.2,70,29.98,7.0,ESE,10.4,-,N/A,,Clear,120,2013-02-07 18:55:00
2:15 PM,39.2,32.0,75,29.97,7.0,ESE,10.4,-,N/A,,Clear,110,2013-02-07 19:15:00
2:35 PM,41.0,32.0,70,29.95,7.0,ESE,6.9,-,N/A,,Clear,120,2013-02-07 19:35:00
2:55 PM,41.0,32.0,70,29.94,7.0,ESE,9.2,-,N/A,,Clear,110,2013-02-07 19:55:00
3:15 PM,41.0,32.0,70,29.93,7.0,ESE,9.2,-,N/A,,Clear,110,2013-02-07 20:15:00
3:35 PM,41.0,32.0,70,29.93,7.0,ESE,6.9,-,N/A,,Clear,120,2013-02-07 20:35:00
3:55 PM,42.8,32.0,66,29.92,7.0,ESE,8.1,-,N/A,,Clear,110,2013-02-07 20:55:00
4:15 PM,41.0,32.0,70,29.91,7.0,ESE,8.1,-,N/A,,Scattered Clouds,110,2013-02-07 21:15:00
4:35 PM,41.0,32.0,70,29.90,7.0,ESE,8.1,-,N/A,,Scattered Clouds,120,2013-02-07 21:35:00
4:55 PM,39.2,32.0,75,29.89,5.0,ESE,8.1,-,N/A,,Haze,120,2013-02-07 21:55:00
5:15 PM,39.2,32.0,75,29.88,5.0,ESE,6.9,-,N/A,,Haze,120,2013-02-07 22:15:00
5:35 PM,37.4,32.0,81,29.88,5.0,ESE,6.9,-,N/A,,Haze,120,2013-02-07 22:35:00
5:55 PM,37.4,32.0,81,29.87,5.0,ESE,9.2,-,N/A,,Haze,120,2013-02-07 22:55:00
6:15 PM,37.4,32.0,81,29.86,5.0,ESE,9.2,-,N/A,,Haze,110,2013-02-07 23:15:00
6:35 PM,37.4,32.0,81,29.85,7.0,ESE,10.4,-,N/A,,Overcast,110,2013-02-07 23:35:00
6:55 PM,35.6,32.0,87,29.85,7.0,ESE,9.2,-,N/A,,Overcast,120,2013-02-07 23:55:00
7:15 PM,35.6,32.0,87,29.84,5.0,ESE,9.2,-,N/A,,Haze,120,2013-02-08 00:15:00
7:35 PM,35.6,32.0,87,29.83,5.0,ESE,10.4,-,N/A,,Haze,120,2013-02-08 00:35:00
7:55 PM,35.6,32.0,87,29.82,5.0,ESE,8.1,-,N/A,,Haze,120,2013-02-08 00:55:00
8:15 PM,35.6,32.0,87,29.81,5.0,ESE,5.8,-,N/A,Rain,Light Rain,120,2013-02-08 01:15:00
8:35 PM,35.6,32.0,87,29.82,5.0,Calm,Calm,-,N/A,Rain,Light Rain,0,2013-02-08 01:35:00
8:55 PM,35.6,32.0,87,29.82,5.0,Calm,Calm,-,N/A,Rain,Light Rain,0,2013-02-08 01:55:00
9:15 PM,35.6,32.0,87,29.83,4.0,NNE,3.5,-,0.01,Rain,Rain,20,2013-02-08 02:15:00
9:35 PM,33.8,33.8,100,29.82,3.0,NNE,4.6,-,0.03,Rain,Rain,20,2013-02-08 02:35:00
9:55 PM,33.8,32.0,93,29.82,2.5,Calm,Calm,-,0.04,Rain,Rain,0,2013-02-08 02:55:00
10:15 PM,33.8,32.0,93,29.81,2.5,Calm,Calm,-,N/A,Rain,Rain,0,2013-02-08 03:15:00
10:35 PM,33.8,32.0,93,29.80,2.5,East,3.5,-,N/A,Rain,Light Rain,100,2013-02-08 03:35:00
10:55 PM,33.8,32.0,93,29.79,2.5,East,3.5,-,N/A,,Light Drizzle,100,2013-02-08 03:55:00
11:15 PM,33.8,32.0,93,29.79,2.5,Calm,Calm,-,N/A,Rain,Rain,0,2013-02-08 04:15:00
11:35 PM,33.8,32.0,93,29.79,2.0,Calm,Calm,-,0.01,Rain,Light Rain,0,2013-02-08 04:35:00
11:55 PM,33.8,33.8,100,29.78,2.0,Calm,Calm,-,0.01,Rain,Light Rain,0,2013-02-08 04:55:00